User: anonymous   Login
Location: Caltech
(34.1382°N, 118.1253°W)
Time: 15:25:53
(UTC-08:00)
Language:

Gbstr 26 Del rocket - Orbit

View from above orbital plane
View from above orbital plane
View from above satellite
View from above satellite

Ground track
Ground track

The orbit data is extracted from the following two-line orbital elements,

1 25876U 99041E   17017.50112241 -.00000178  00000-0  93532-5 0  9997
2 25876  51.7654 191.3344 0531515 308.9441  46.5239 14.03972882893443
Epoch (UTC): 17 January 2017 12:01:36
Eccentricity: 0.0531515
inclination: 51.7654°
perigee height: 494 km
apogee height: 1266 km
right ascension of ascending node: 191.3344°
argument of perigee: 308.9441°
revolutions per day: 14.03972882
mean anomaly at epoch: 46.5239°
orbit number at epoch: 89344

The dashed part of the orbit path shows where the satellite is in the earth's shadow,  

DLR